sat.trackr.live / text

‹ back to catalog

TIANYAN 01

NORAD 44881 · 2019-093C

PAYLOAD ACTIVE UNKNOWN

§ Identity

Operator
Country
PRC
Launch date
2019-12-20
Launch site
TAISC
Launch vehicle
Mass (kg)
RCS (m²)

Purposes: comms

External: N2YO · Heavens-Above · Gunter

§ Orbital elements

Epoch: 2026-09-13T03:40:57.645408Z

Period
96.86 min
Inclination
97.7465°
Eccentricity
0.0014082
Mean motion
14.86630172 rev/d
Perigee alt
598.6 km
Apogee alt
618.3 km
Semi-major
6,986.6 km
B*
7.0005e-5
RAAN
326.2110°
Arg perigee
151.8564°
Mean anomaly
208.3416°
Rev number
36,448

§ Raw data

TIANYAN 011 44881U 19093C   26256.15344497  .00000569  00000+0  70005-4 0  99902 44881  97.7465 326.2110 0014082 151.8564 208.3416 14.86630172364482

JSON: /api/v1/satellites/44881 · /tle

For live sub-satellite position, see the globe view (requires WebGL).

§ Visibility from observer

Set your observer location to see the next 7 days of passes ≥ 10°. The values pass through the URL so the page stays shareable.

No JS? Fill the form by hand. The geolocation button needs JavaScript.

§ Radio — SatNOGS DB

ModeDescriptionDownlinkUplink
USB Mode U/V Linear Transponder 145.915 MHz–145.935 MHz 435.270 MHz–435.290 MHz
CW Mode V CW TLM 145.910 MHz
GMSK Mode V GMSK4k8 AX.25 TLM 145.890 MHz
FM S-band telemetry 2.278 GHz
FM Transmitter 401.545-401.555 401.550 MHz

5 transmitters · refreshed weekly from db.satnogs.org